OCO 2 (40059 NORAD) Tracking and Keplerian Element Data

This shows tracking and keplerian element data for the satellite.

Feedback or suggestion? Click here.




ElementValue
Catalog40059
NameOCO 2
Epoch Orbit21554
Epoch Day202.53298959
Epoch Year2018
RAAN143.3141
Inclination98.2031
Eccentricity0.0001232
Argument of Perigee89.4483
Mean Anonmoly270.6856
Mean Motion14.57110742
Decay Rate-1E-08
L11 40059U 14035A 18202.53298959 -.00000001 00000-0 97459-5 0 9995
L22 40059 98.2031 143.3141 0001232 89.4483 270.6856 14.57110742215547

Live tracking and technical data element details for OCO 2 (NORAD 40059). OCO 2 can be tracked NOW for your location showing map with azimuth and elevation plus other details from your city location.

Track the satellite on the map from your city or location and see movement details for azimuth, elevation, latitude, longitude, range, height, and movement on the map or in text.







IsCatalogInMostPopularTable: catalog: 40059, numindb: 52
Update: records affected: 1



GetName: 40059 OCO 2

Hit Count: updated at: Mon, 23 Jul 2018 07:49:37 GMT